PROBA-3 OSC

unknown
NORAD ID: 62258 Int'l Des: 2024-233 Owner: ESA Country: I-ESA
MEOELLIPTICALHEO_ELLIPTICAL

Über PROBA-3 OSC

Beschreibung wird geladen...

Live-Position

3D-Globus wird geladen...

Nächste Überflüge

Höhenverlauf

Altitude vs Time

uPlot chart will show altitude changes over time

Zweizeiliger Elementsatz

1 62258U 24233C 26069.20364853 -.00000176 00000-0 31704-2 0 9993
2 62258 59.6148 105.7948 8014513 202.6494 77.3699 1.22080846 5604
Epoch: 10. März 2026 • Age: 70 hours

Aktueller Status

Höhe 60127.6 km
Geschwindigkeit 1.10 km/s
Subsatellitenpunkt 20.86°N, 21.4°W
Startdatum 5. Dez. 2024
Alter 1.2 years
Typ other

Technische Details

Klassifizierung Payload
Masse 200.00 kg
Trockenmasse 200.00 kg
Gesamtmasse 200.00 kg
Länge 1.40 m
Durchmesser 0.90 m
Spannweite 1.40 m
Form Cyl
Hersteller ADST
Bus-Typ Myriade
Phasenstatus In Orbit
Besitzer/Staat ESA/I-ESA

Große Konstellationen

Loading constellations...